SCP
0 0 0 0 0 0 0 0 0 0 0 0 0 0 0 0 0 0 0 0 0 0 0 0 0 0 0 0 0 0 0 0 0 0 0 0 0 0 0 0 0 0 0
0 0 0 0 0 0 0 0 0 0 0 0 0 0 0 0 0 0 0 0 0 0 0 0 0 0 0 0 0 0 0 0 0 0 0 0 0 0 0 0 0 0 0
0 0 0 0 0 0 0 0 0 0 0 0 0 0 0 0 0 0 0 0 0 0 0 0 0 0 0 0 0 0 0 0 0 0 0 0 0 0 0 0 0 0 0
0 0 0 0 0 0 0 0 0 0 0 0 0 0 0 0 0 0 0 0 0 0 0 0 0 0 0 0 0 0 0 0 0 0 0 0 0 0 0 0 0 0 0
0 0 0 0 0 0 0 0 0 0 0 0 0 0 0 0 0 0 0 0 0 0 0 0 0 0 0 0 0 0 0 0 0 0 0 0 0 0 0 0 0 0 0
0 0 0 0 0 0 0 0 0 0 0 0 0 0 0 0 0 0 0 0 0 0 0 0 0 0 0 0 0 0 0 0 0 0 0 0 0 0 0 0 0 0 0
0 0 0 0 0 0 0 0 0 0 0 0 0 0 0 0 0 0 0 0 0 0 0 0 0 0 0 0 0 0 0 0 0 0 0 0 0 0 0 0 0 0 0
0 0 0 0 0 0 0 0 0 0 0 0 0 0 0 0 0 0 0 0 0 0 0 0 0 0 0 0 0 0 0 0 0 0 0 0 0 0 0 0 0 0 0
0 0 0 0 0 0 0 0 0 0 0 0 0 0 0 0 0 0 0 0 0 0 0 0 0 0 0 0 0 0 0 0 0 0 0 0 0 0 0 0 0 0 0
0 0 0 0 0 0 0 0 0 0 0 0 0 0 0 0 0 0 0 0 0 0 0 0 0 0 0 0 0 0 0 0 0 0 0 0 0 0 0 0 0 0 0
0 0 0 0 0 0 0 0 0 0 0 0 0 0 0 0 0 0 0 0 0 0 0 0 0 0 0 0 0 0 0 0 0 0 0 0 0 0 0 0 0 0 0
0 0 0 0 0 0 0 0 0 0 0 0 0 0 0 0 0 0 0 0 0 0 0 0 0 0 0 0 0 0 0 0 0 0 0 0 0 0 0 0 0 0 0
0 0 0 0 0 0 0 0 0 0 0 0 0 0 0 0 0 0 0 0 0 0 0 0 0 0 0 0 0 0 0 0 0 0 0 0 0 0 0 0 0 0 0
0 0 0 0 0 0 0 0 0 0 0 0 0 0 0 0 0 0 0 0 0 0 0 0 0 0 0 0 0 0 0 0 0 0 0 0 0 0 0 0 0 0 0
0 0 0 0 0 0 0 0 0 0 0 0 0 0 0 0 0 0 0 0 0 0 0 0 0 0 0 0 0 0 0 0 0 0 0 0 0 0 0 0 0 0 0
0 0 0 0 0 0 0 0 0 0 0 0 0 0 0 0 0 0 0 0 0 0 0 0 0 0 0 0 0 0 0 0 0 0 0 0 0 0 0 0 0 0 0
0 0 0 0 0 0 0 0 0 0 0 0 0 0 0 0 0 0 0 0 0 0 0 0 0 0 0 0 0 0 0 0 0 0 0 0 0 0 0 0 0 0 0
0 0 0 0 0 0 0 0 0 0 0 0 0 0 0 0 0 0 0 0 0 0 0 0 0 0 0 0 0 0 0 0 0 0 0 0 0 0 0 0 0 0 0
0 0 0 0 0 0 0 0 0 0 0 0 0 0 0 0 0 0 0 0 0 0 0 0 0 0 0 0 0 0 0 0 0 0 0 0 -0 0 0 0 0 0 0
0 0 0 0 0 0 0 0 0 0 0 0 0 0 0 0 0 0 0 0 0 0 0 0 0 0 0 0 0 0 0 0 0 0 -0 0 0 0 0 0 0 0 0
0 0 0 0 0 0 0 0 0 0 0 0 0 0 0 0 0 0 0 0 0 0 0 0 0 0 0 0 0 0 0 0 0 0 0 0 0 -0 -0 -0 -0 -0 -0
0 0 0 0 0 0 0 0 0 0 0 0 0 0 0 0 0 0 0 0 0 0 0 0 0 0 0 0 0 0 0 0 0 0 0 0 0 -0 -0 0 -0 0 0
0 0 0 0 0 0 0 0 0 0 0 0 0 0 0 0 0 0 0 0 0 0 0 0 0 0 0 0 0 0 0 0 0 0 0 0 -0 0 0 0 0 -0 -0
0 0 0 0 0 0 0 0 0 0 0 0 0 0 0 0 0 0 0 0 0 0 0 0 0 0 0 0 0 0 0 0 0 0 0 0 0 0 0 0 -0 -0 -0
0 0 0 0 0 0 0 0 0 0 0 0 0 0 0 0 0 0 0 0 0 0 0 0 0 0 0 0 0 0 0 0 0 0 0 0 0 0 0 0 0 -0 0
0 0 0 0 0 0 0 0 0 0 0 0 0 0 0 0 0 0 0 0 0 0 0 0 0 0 0 0 0 0 0 0 0 0 0 0 0 0 0 0 0 0 0
Wind_Speed_500mb
28 22 20 15 8 4 6 12 19 25 24 24 21 21 19 16 14 14 11 6 3 2 9 11 13 14 17 24 24 28 31 33 33 35 35 35 36 36 38 38 38 39 39
27 23 19 12 6 7 11 15 20 22 22 23 19 17 16 14 12 10 9 9 13 16 17 21 22 19 26 29 29 31 34 36 37 36 35 35 37 38 38 38 39 40 41
22 20 13 10 10 10 14 21 23 21 21 19 16 13 12 11 10 9 8 8 12 16 19 22 22 21 19 29 31 33 34 35 37 37 36 36 36 38 40 41 41 41 41
23 21 15 12 13 16 19 24 23 19 16 15 13 9 8 7 8 8 7 8 9 13 16 20 23 24 24 23 31 32 33 34 36 37 37 37 38 39 39 39 41 42 42
22 21 18 19 21 25 27 23 19 15 12 6 5 5 6 7 7 3 3 6 10 13 17 21 22 21 23 25 28 31 35 35 37 37 38 39 39 39 39 39 40 40 41
23 23 25 27 31 28 23 19 14 6 2 2 6 8 8 7 4 3 6 9 13 16 18 19 20 22 24 25 27 30 32 35 37 38 38 39 40 41 40 40 42 42 42
30 32 34 33 28 22 17 8 1 4 11 14 14 11 9 9 7 6 8 11 14 17 20 21 20 22 25 27 29 31 34 36 37 38 39 40 41 41 41 43 43 43 43
37 36 35 29 22 14 9 13 15 20 26 21 18 11 5 6 9 6 6 8 15 19 21 22 24 25 28 30 33 34 35 36 38 39 39 40 41 42 42 44 44 44 44
39 35 30 21 16 17 16 19 25 18 11 6 2 8 5 4 4 7 7 11 20 22 24 24 26 28 31 35 37 38 40 41 41 42 42 42 41 41 43 45 45 45 46
36 28 19 17 14 12 17 8 2 4 3 3 2 2 1 1 3 4 7 13 22 21 24 24 27 31 33 39 41 41 42 43 43 42 42 42 43 44 44 47 46 45 46
31 24 18 10 12 4 6 7 6 7 6 4 4 5 6 7 8 3 3 7 18 21 27 23 31 33 36 44 44 43 44 44 46 45 45 46 47 47 45 48 46 45 46
28 24 15 10 11 12 10 9 9 9 8 6 6 6 7 7 12 10 9 17 21 20 25 28 34 33 44 48 48 47 47 48 48 48 48 49 50 49 47 50 46 47 48
23 19 19 17 15 13 11 10 8 8 8 8 7 7 9 11 13 16 17 21 23 26 22 31 30 37 48 50 51 50 50 51 51 51 51 52 53 53 52 52 50 50 51
27 24 18 18 17 14 11 9 8 7 8 8 9 10 12 13 15 17 19 22 19 14 20 20 30 41 48 51 52 52 52 51 51 51 52 55 56 56 57 53 52 54 53
26 23 23 18 16 14 13 9 8 6 9 11 12 14 15 17 19 21 22 23 23 16 26 15 26 38 51 52 52 52 53 53 52 52 55 60 60 60 60 59 52 59 62
27 26 23 19 16 13 10 7 6 8 10 13 15 16 19 20 21 23 26 27 27 21 19 23 35 43 47 47 50 54 55 61 57 57 63 65 65 68 59 62 63 63 71
31 26 22 17 13 9 6 5 6 9 12 15 16 18 20 22 23 25 27 30 31 30 31 35 36 37 41 42 44 48 53 52 53 63 72 74 75 61 67 69 69 78 75
29 24 19 14 9 6 4 6 8 11 13 16 18 20 21 23 25 26 30 33 34 35 31 40 38 40 41 44 46 49 46 45 48 57 71 77 66 70 74 79 82 81 77
26 22 17 12 7 4 4 5 9 12 14 15 18 21 24 26 28 30 33 35 34 30 31 36 46 42 45 46 47 48 47 54 52 61 69 64 58 74 85 84 79 77 76
22 18 14 10 5 2 4 8 11 12 14 18 21 23 25 29 31 31 34 32 31 32 35 40 45 49 48 47 48 56 62 61 60 70 57 58 80 85 83 77 79 71 69
22 17 10 5 1 3 6 9 12 16 19 21 23 28 32 32 32 32 35 36 35 34 38 42 48 52 50 53 56 59 68 67 63 60 60 86 84 68 61 54 62 63 71
16 12 7 3 2 4 7 11 15 17 19 23 29 33 34 34 33 37 37 40 34 34 38 42 50 52 52 57 59 61 64 69 75 64 73 87 64 64 51 66 73 80 79
13 8 5 3 5 10 11 12 13 18 24 28 29 31 33 36 39 44 43 35 37 48 49 57 48 48 56 59 66 65 62 61 67 80 63 87 58 59 74 86 94 75 69
10 6 3 5 10 13 15 17 23 25 26 30 32 35 38 39 41 42 35 45 47 52 59 60 57 61 69 74 69 65 61 64 70 68 60 65 62 91 94 104 94 65 72
5 4 6 9 13 16 19 23 25 27 29 35 37 38 38 39 40 37 43 50 57 59 60 59 63 70 70 68 64 64 63 60 70 74 59 52 75 86 79 97 109 89 91
6 7 9 12 15 18 23 25 28 32 34 37 38 40 43 41 38 28 38 55 60 51 66 71 73 69 66 61 57 54 53 51 53 57 49 68 77 65 63 95 112 115 109
Wind_Direction_500mb
192 192 197 208 220 282 324 328 333 340 342 342 341 343 343 342 343 347 354 1 337 226 226 239 278 297 331 30 11 18 15 9 350 349 346 347 352 353 358 354 349 346 340
198 203 210 229 236 279 304 313 310 321 323 326 327 328 330 335 337 340 333 312 285 283 284 294 307 337 31 36 26 23 19 13 12 9 5 5 7 4 2 358 353 352 352
197 198 215 236 254 287 303 308 304 301 306 304 306 313 323 326 320 312 301 289 295 298 296 299 305 317 11 37 31 29 24 16 11 10 6 3 3 1 359 357 356 354 352
200 213 229 252 263 280 280 284 288 285 294 299 305 307 306 298 293 286 282 285 295 307 320 327 332 336 344 5 29 21 15 12 8 3 2 359 359 359 357 355 353 353 350
217 230 243 258 264 267 269 277 290 301 315 312 286 273 268 263 271 293 324 313 325 336 341 341 344 351 351 352 356 9 16 11 8 359 1 2 359 356 354 354 350 347 346
219 233 251 251 255 260 271 274 282 312 9 257 255 244 239 238 258 311 336 342 345 346 345 342 342 344 347 347 347 348 355 2 2 353 352 352 355 354 351 351 346 345 345
230 239 240 248 251 260 268 253 227 331 313 295 257 260 265 269 270 303 333 340 344 343 343 340 340 344 347 347 344 343 342 344 347 346 346 345 346 350 348 345 344 343 341
232 237 240 245 245 237 227 255 255 279 288 283 264 252 239 276 264 285 325 349 347 344 340 338 339 342 344 345 345 342 340 339 338 339 341 342 345 347 346 342 341 340 337
229 231 234 227 225 249 260 265 278 277 258 244 280 220 239 240 199 281 297 342 347 342 338 332 333 338 342 344 344 340 338 337 335 332 331 330 331 339 341 340 339 337 334
218 212 197 226 242 255 279 284 202 182 178 246 278 32 64 263 183 228 283 313 339 333 334 328 330 332 337 341 340 339 337 334 332 329 326 326 327 333 337 337 335 334 330
185 188 211 229 256 175 143 161 153 116 113 94 54 25 5 358 360 322 281 308 332 327 331 325 328 328 332 335 336 335 333 331 330 328 328 328 329 334 334 332 331 328 327
194 190 198 166 145 149 142 119 108 101 95 84 62 31 14 6 349 355 333 323 332 325 328 326 328 326 329 332 332 332 332 332 333 331 330 330 329 329 331 328 327 324 321
179 168 130 149 146 127 113 102 94 83 77 62 51 26 13 4 356 351 346 335 333 327 330 321 324 321 323 329 329 331 330 331 330 329 327 326 326 324 325 325 323 319 320
163 127 151 151 140 130 124 119 96 72 61 45 35 24 17 6 357 350 347 344 333 308 314 304 313 314 325 327 327 328 326 326 325 324 322 324 322 320 320 320 320 317 316
133 164 161 149 142 138 128 106 81 61 48 30 25 16 12 4 358 351 347 346 339 324 314 298 315 314 320 324 323 324 322 323 322 323 323 325 322 320 318 318 317 318 314
164 161 153 150 142 129 116 98 69 45 33 24 17 9 4 358 351 346 342 335 332 319 295 305 310 310 318 321 321 324 324 324 325 325 325 325 323 322 316 315 315 314 313
160 157 150 147 138 129 111 82 48 34 20 11 7 1 353 346 342 338 337 333 328 317 303 303 304 308 315 317 319 319 321 321 322 326 328 327 325 320 317 317 315 314 311
152 150 148 145 142 140 107 53 21 11 10 4 355 346 339 335 337 334 332 326 317 315 303 302 309 314 316 317 318 315 317 317 316 315 321 323 321 319 318 318 317 313 309
152 153 154 152 156 135 58 14 0 2 357 348 337 334 333 330 326 328 327 321 313 309 309 308 313 316 314 315 315 317 316 314 316 315 319 317 318 315 318 318 314 312 309
155 159 161 159 139 52 358 357 350 340 336 334 328 324 321 322 323 323 319 315 314 316 316 316 313 313 314 318 319 318 316 318 318 321 321 310 318 318 321 316 314 314 312
160 167 166 144 129 352 346 329 328 332 328 321 318 323 323 318 315 313 318 319 319 316 315 314 313 313 317 319 319 317 315 317 320 324 315 319 322 319 315 314 312 309 311
162 167 167 181 281 298 323 321 317 314 314 322 326 323 313 310 313 316 322 319 315 313 314 316 315 313 314 315 316 316 316 319 320 321 315 321 321 318 318 314 315 311 310
168 173 193 236 289 304 304 299 304 317 324 322 314 308 308 313 322 326 327 325 303 313 314 313 314 313 313 317 316 316 317 315 312 319 321 319 326 317 322 321 325 316 312
174 190 241 288 290 292 297 316 328 325 317 310 310 316 318 323 325 329 319 307 311 312 313 313 310 313 315 316 314 313 313 312 315 322 325 316 324 326 331 332 332 322 316
167 235 273 286 287 294 315 320 316 307 310 311 319 319 322 322 323 333 311 306 311 314 312 318 318 317 315 315 314 315 321 322 323 326 338 320 323 328 324 334 335 325 323
225 258 275 287 302 314 310 306 302 311 316 315 322 323 320 322 326 313 295 309 316 322 317 320 320 318 318 319 320 325 324 320 320 322 326 323 325 328 322 332 331 336 335
Wind_Speed_850mb
28 22 20 15 8 4 6 12 19 25 24 24 21 21 19 16 14 14 11 6 3 2 9 11 13 14 17 24 24 28 31 33 33 35 35 35 36 36 38 38 38 39 39
27 23 19 12 6 7 11 15 20 22 22 23 19 17 16 14 12 10 9 9 13 16 17 21 22 19 26 29 29 31 34 36 37 36 35 35 37 38 38 38 39 40 41
22 20 13 10 10 10 14 21 23 21 21 19 16 13 12 11 10 9 8 8 12 16 19 22 22 21 19 29 31 33 34 35 37 37 36 36 36 38 40 41 41 41 41
23 21 15 12 13 16 19 24 23 19 16 15 13 9 8 7 8 8 7 8 9 13 16 20 23 24 24 23 31 32 33 34 36 37 37 37 38 39 39 39 41 42 42
22 21 18 19 21 25 27 23 19 15 12 6 5 5 6 7 7 3 3 6 10 13 17 21 22 21 23 25 28 31 35 35 37 37 38 39 39 39 39 39 40 40 41
23 23 25 27 31 28 23 19 14 6 2 2 6 8 8 7 4 3 6 9 13 16 18 19 20 22 24 25 27 30 32 35 37 38 38 39 40 41 40 40 42 42 42
30 32 34 33 28 22 17 8 1 4 11 14 14 11 9 9 7 6 8 11 14 17 20 21 20 22 25 27 29 31 34 36 37 38 39 40 41 41 41 43 43 43 43
37 36 35 29 22 14 9 13 15 20 26 21 18 11 5 6 9 6 6 8 15 19 21 22 24 25 28 30 33 34 35 36 38 39 39 40 41 42 42 44 44 44 44
39 35 30 21 16 17 16 19 25 18 11 6 2 8 5 4 4 7 7 11 20 22 24 24 26 28 31 35 37 38 40 41 41 42 42 42 41 41 43 45 45 45 46
36 28 19 17 14 12 17 8 2 4 3 3 2 2 1 1 3 4 7 13 22 21 24 24 27 31 33 39 41 41 42 43 43 42 42 42 43 44 44 47 46 45 46
31 24 18 10 12 4 6 7 6 7 6 4 4 5 6 7 8 3 3 7 18 21 27 23 31 33 36 44 44 43 44 44 46 45 45 46 47 47 45 48 46 45 46
28 24 15 10 11 12 10 9 9 9 8 6 6 6 7 7 12 10 9 17 21 20 25 28 34 33 44 48 48 47 47 48 48 48 48 49 50 49 47 50 46 47 48
23 19 19 17 15 13 11 10 8 8 8 8 7 7 9 11 13 16 17 21 23 26 22 31 30 37 48 50 51 50 50 51 51 51 51 52 53 53 52 52 50 50 51
27 24 18 18 17 14 11 9 8 7 8 8 9 10 12 13 15 17 19 22 19 14 20 20 30 41 48 51 52 52 52 51 51 51 52 55 56 56 57 53 52 54 53
26 23 23 18 16 14 13 9 8 6 9 11 12 14 15 17 19 21 22 23 23 16 26 15 26 38 51 52 52 52 53 53 52 52 55 60 60 60 60 59 52 59 62
27 26 23 19 16 13 10 7 6 8 10 13 15 16 19 20 21 23 26 27 27 21 19 23 35 43 47 47 50 54 55 61 57 57 63 65 65 68 59 62 63 63 71
31 26 22 17 13 9 6 5 6 9 12 15 16 18 20 22 23 25 27 30 31 30 31 35 36 37 41 42 44 48 53 52 53 63 72 74 75 61 67 69 69 78 75
29 24 19 14 9 6 4 6 8 11 13 16 18 20 21 23 25 26 30 33 34 35 31 40 38 40 41 44 46 49 46 45 48 57 71 77 66 70 74 79 82 81 77
26 22 17 12 7 4 4 5 9 12 14 15 18 21 24 26 28 30 33 35 34 30 31 36 46 42 45 46 47 48 47 54 52 61 69 64 58 74 85 84 79 77 76
22 18 14 10 5 2 4 8 11 12 14 18 21 23 25 29 31 31 34 32 31 32 35 40 45 49 48 47 48 56 62 61 60 70 57 58 80 85 83 77 79 71 69
22 17 10 5 1 3 6 9 12 16 19 21 23 28 32 32 32 32 35 36 35 34 38 42 48 52 50 53 56 59 68 67 63 60 60 86 84 68 61 54 62 63 71
16 12 7 3 2 4 7 11 15 17 19 23 29 33 34 34 33 37 37 40 34 34 38 42 50 52 52 57 59 61 64 69 75 64 73 87 64 64 51 66 73 80 79
13 8 5 3 5 10 11 12 13 18 24 28 29 31 33 36 39 44 43 35 37 48 49 57 48 48 56 59 66 65 62 61 67 80 63 87 58 59 74 86 94 75 69
10 6 3 5 10 13 15 17 23 25 26 30 32 35 38 39 41 42 35 45 47 52 59 60 57 61 69 74 69 65 61 64 70 68 60 65 62 91 94 104 94 65 72
5 4 6 9 13 16 19 23 25 27 29 35 37 38 38 39 40 37 43 50 57 59 60 59 63 70 70 68 64 64 63 60 70 74 59 52 75 86 79 97 109 89 91
6 7 9 12 15 18 23 25 28 32 34 37 38 40 43 41 38 28 38 55 60 51 66 71 73 69 66 61 57 54 53 51 53 57 49 68 77 65 63 95 112 115 109
Wind_Direction_850mb
192 192 197 208 220 282 324 328 333 340 342 342 341 343 343 342 343 347 354 1 337 226 226 239 278 297 331 30 11 18 15 9 350 349 346 347 352 353 358 354 349 346 340
198 203 210 229 236 279 304 313 310 321 323 326 327 328 330 335 337 340 333 312 285 283 284 294 307 337 31 36 26 23 19 13 12 9 5 5 7 4 2 358 353 352 352
197 198 215 236 254 287 303 308 304 301 306 304 306 313 323 326 320 312 301 289 295 298 296 299 305 317 11 37 31 29 24 16 11 10 6 3 3 1 359 357 356 354 352
200 213 229 252 263 280 280 284 288 285 294 299 305 307 306 298 293 286 282 285 295 307 320 327 332 336 344 5 29 21 15 12 8 3 2 359 359 359 357 355 353 353 350
217 230 243 258 264 267 269 277 290 301 315 312 286 273 268 263 271 293 324 313 325 336 341 341 344 351 351 352 356 9 16 11 8 359 1 2 359 356 354 354 350 347 346
219 233 251 251 255 260 271 274 282 312 9 257 255 244 239 238 258 311 336 342 345 346 345 342 342 344 347 347 347 348 355 2 2 353 352 352 355 354 351 351 346 345 345
230 239 240 248 251 260 268 253 227 331 313 295 257 260 265 269 270 303 333 340 344 343 343 340 340 344 347 347 344 343 342 344 347 346 346 345 346 350 348 345 344 343 341
232 237 240 245 245 237 227 255 255 279 288 283 264 252 239 276 264 285 325 349 347 344 340 338 339 342 344 345 345 342 340 339 338 339 341 342 345 347 346 342 341 340 337
229 231 234 227 225 249 260 265 278 277 258 244 280 220 239 240 199 281 297 342 347 342 338 332 333 338 342 344 344 340 338 337 335 332 331 330 331 339 341 340 339 337 334
218 212 197 226 242 255 279 284 202 182 178 246 278 32 64 263 183 228 283 313 339 333 334 328 330 332 337 341 340 339 337 334 332 329 326 326 327 333 337 337 335 334 330
185 188 211 229 256 175 143 161 153 116 113 94 54 25 5 358 360 322 281 308 332 327 331 325 328 328 332 335 336 335 333 331 330 328 328 328 329 334 334 332 331 328 327
194 190 198 166 145 149 142 119 108 101 95 84 62 31 14 6 349 355 333 323 332 325 328 326 328 326 329 332 332 332 332 332 333 331 330 330 329 329 331 328 327 324 321
179 168 130 149 146 127 113 102 94 83 77 62 51 26 13 4 356 351 346 335 333 327 330 321 324 321 323 329 329 331 330 331 330 329 327 326 326 324 325 325 323 319 320
163 127 151 151 140 130 124 119 96 72 61 45 35 24 17 6 357 350 347 344 333 308 314 304 313 314 325 327 327 328 326 326 325 324 322 324 322 320 320 320 320 317 316
133 164 161 149 142 138 128 106 81 61 48 30 25 16 12 4 358 351 347 346 339 324 314 298 315 314 320 324 323 324 322 323 322 323 323 325 322 320 318 318 317 318 314
164 161 153 150 142 129 116 98 69 45 33 24 17 9 4 358 351 346 342 335 332 319 295 305 310 310 318 321 321 324 324 324 325 325 325 325 323 322 316 315 315 314 313
160 157 150 147 138 129 111 82 48 34 20 11 7 1 353 346 342 338 337 333 328 317 303 303 304 308 315 317 319 319 321 321 322 326 328 327 325 320 317 317 315 314 311
152 150 148 145 142 140 107 53 21 11 10 4 355 346 339 335 337 334 332 326 317 315 303 302 309 314 316 317 318 315 317 317 316 315 321 323 321 319 318 318 317 313 309
152 153 154 152 156 135 58 14 0 2 357 348 337 334 333 330 326 328 327 321 313 309 309 308 313 316 314 315 315 317 316 314 316 315 319 317 318 315 318 318 314 312 309
155 159 161 159 139 52 358 357 350 340 336 334 328 324 321 322 323 323 319 315 314 316 316 316 313 313 314 318 319 318 316 318 318 321 321 310 318 318 321 316 314 314 312
160 167 166 144 129 352 346 329 328 332 328 321 318 323 323 318 315 313 318 319 319 316 315 314 313 313 317 319 319 317 315 317 320 324 315 319 322 319 315 314 312 309 311
162 167 167 181 281 298 323 321 317 314 314 322 326 323 313 310 313 316 322 319 315 313 314 316 315 313 314 315 316 316 316 319 320 321 315 321 321 318 318 314 315 311 310
168 173 193 236 289 304 304 299 304 317 324 322 314 308 308 313 322 326 327 325 303 313 314 313 314 313 313 317 316 316 317 315 312 319 321 319 326 317 322 321 325 316 312
174 190 241 288 290 292 297 316 328 325 317 310 310 316 318 323 325 329 319 307 311 312 313 313 310 313 315 316 314 313 313 312 315 322 325 316 324 326 331 332 332 322 316
167 235 273 286 287 294 315 320 316 307 310 311 319 319 322 322 323 333 311 306 311 314 312 318 318 317 315 315 314 315 321 322 323 326 338 320 323 328 324 334 335 325 323
225 258 275 287 302 314 310 306 302 311 316 315 322 323 320 322 326 313 295 309 316 322 317 320 320 318 318 319 320 325 324 320 320 322 326 323 325 328 322 332 331 336 335